Location: Lombard
(41.8800°N, 88.0080°W)
Time: 07:33:54
(UTC-05:00)

Vanguard 3 - Pass Details

Date: 01 February 2023
Orbit: 508 x 3249 km, 33.4° (Epoch: 27 March)

Event Time Altitude Azimuth Distance (km) Brightness Sun altitude
Rises 19:46:55 0° 244° (WSW) 4,515 11.8 -29.9°
Reaches altitude 10° 19:49:29 10° 240° (WSW) 3,834 11.2 -30.4°
Maximum altitude 19:59:59 57° 165° (SSE) 2,638 9.4 -32.4°
Enters shadow 20:03:39 49° 126° (SE) 3,082 9.6 -33.0°
